Location: Waco, TX
(31.5480°N, 97.1670°W)
Time: 00:36:41
(UTC-06:00)

ISS - Pass Details

Date: 12 December 2017
Orbit: 403 x 407 km, 51.6° (Epoch: 12 December)

Event Time Altitude Azimuth Distance (km) Brightness Sun altitude
Rises 21:18:25 0° 290° (WNW) 2,318 - -48.5°
Reaches altitude 10° 21:21:43 10° 254° (WSW) 1,452 - -49.2°
Maximum altitude 21:22:46 11° 235° (SW) 1,379 - -49.4°
Drops below altitude 10° 21:23:49 10° 216° (SW) 1,449 - -49.7°
Sets 21:27:07 0° 179° (S) 2,300 - -50.4°
